Regional Weather Roundup
Issued by NWS

Home | Current Version | Previous Version | Graphics & Text | Print | Product List | Glossary On
Versions: 1 2 3 4 5 6 7 8 9 10 11 12 13 14 15 16 17 18 19 20 21 22 23 24 25 26 27
000
ASUS45 KBOI 230510
RWRID

IDAHO REGIONAL WEATHER ROUNDUP
NATIONAL WEATHER SERVICE BOISE ID
1100 PM MDT TUE AUG 22 2017

NOTE: "FAIR" INDICATES FEW OR NO CLOUDS BELOW 12000 FEET
WITH NO SIGNIFICANT WEATHER AND/OR OBSTRUCTIONS TO VISIBILITY

IDZ012-014-230600-
SOUTHWEST IDAHO


CITY           SKY/WX    TMP DP  RH WIND       PRES   REMARKS
BOISE          CLEAR     75  47  36 SE5       29.98S
CALDWELL       CLEAR     68  55  63 N6        29.95F
MOUNTAIN HOME  MOCLDY    78  43  28 NW7       29.99S
$$

IDZ016-017-230600-
SOUTHCENTRAL IDAHO


CITY           SKY/WX    TMP DP  RH WIND       PRES   REMARKS
BURLEY         CLOUDY    76  47  35 S18       30.08F
JEROME         CLOUDY    76  46  34 SW3       30.09S
TWIN FALLS     CLOUDY    79  39  23 S12       30.08F
$$

IDZ019>023-230600-
SOUTHEAST IDAHO


CITY           SKY/WX    TMP DP  RH WIND       PRES   REMARKS
IDAHO FALLS    CLEAR     59  45  59 CALM      30.14S
POCATELLO      CLEAR     74  36  25 S10       30.13R
REXBURG        CLEAR     60  42  51 N7        30.15R
$$

IDZ006-010-011-018-031-032-230600-
CENTRAL IDAHO MOUNTAINS


CITY           SKY/WX    TMP DP  RH WIND       PRES   REMARKS
MCCALL         CLEAR     67  44  43 N3        30.15S
HAILEY         PTCLDY    63  39  42 W5        30.19S
STANLEY          N/A     54  31  41 VRB3      30.29R
SALMON         CLEAR     66  35  31 SE5       30.11R
CHALLIS        CLOUDY    68  32  26 NW6       30.17S HAZE
$$

IDZ002-004-006-007-026-230600-
NORTHERN IDAHO


CITY           SKY/WX    TMP DP  RH WIND       PRES   REMARKS
LEWISTON       CLEAR     79  41  25 S5        29.91S
LOWELL           N/A     66  52  60 CALM      29.97R
COEUR D`ALENE  CLEAR     71  50  47 E3        29.96F
MULLAN PASS    CLEAR     67  36  31 SW5       30.21F
$$




USA.gov is the U.S. government's official web portal to all federal, state and local government web resources and services.